CW8998 Weather Reports


Display with metric or nautical units.
time (UTC)temp
F
wind
direction
speed
MPH
gust
MPH
rain 1hr
in
rain 24hr
in
rain mn
in
humidity
%
barometer
mb
20260509093528 47 333 1.0 4.0 0.01 0.04 0.04 86 1003.2
20260509093043 47 324 2.0 4.0 0.02 0.04 0.04 86 1003.1
20260509092527 47 317 1.0 3.0 0.02 0.04 0.04 87 1003.0
20260509092027 47 332 1.0 3.0 0.02 0.04 0.04 87 1002.9
20260509091541 47 0 0.0 4.0 0.01 0.03 0.03 87 1002.6
20260509091030 47 254 1.0 4.0 0.01 0.03 0.03 87 1002.8
20260509090528 47 0 1.0 3.0 0.02 0.03 0.03 86 1002.7
20260509090046 47 0 0.0 2.0 0.03 0.03 0.03 86 1002.5
20260509085527 47 215 0.0 2.0 0.03 0.03 0.03 86 1002.6
20260509085027 47 0 0.0 3.0 0.03 0.03 0.03 86 1002.6
20260509084539 47 0 0.0 3.0 0.03 0.03 0.03 85 1002.7
20260509084028 47 0 0.0 3.0 0.03 0.03 0.03 85 1002.6
20260509083528 47 270 1.0 3.0 0.03 0.03 0.03 85 1002.8
20260509083041 47 306 0.0 3.0 0.02 0.02 0.02 84 1002.8
20260509082527 47 0 0.0 8.0 0.02 0.02 0.02 84 1002.9
20260509082028 47 300 2.0 15.0 0.02 0.02 0.02 83 1003.0
20260509081549 47 306 3.0 15.0 0.02 0.02 0.02 83 1003.2
20260509081026 48 326 4.0 10.0 0.02 0.02 0.02 83 1003.0
20260509080527 48 307 1.0 5.0 0.01 0.01 0.01 82 1003.0
20260509080042 48 319 2.0 5.0 0.00 0.00 0.00 82 1002.9
20260509075527 48 325 1.0 7.0 0.00 0.00 0.00 81 1002.9
20260509075030 48 24 2.0 9.0 0.00 0.00 0.00 80 1002.9
20260509074538 48 0 3.0 9.0 0.00 0.00 0.00 80 1003.2
20260509074027 49 323 4.0 9.0 0.00 0.00 0.00 79 1003.2
20260509073527 49 332 3.0 13.0 0.00 0.00 0.00 77 1003.1
20260509073039 50 348 5.0 14.0 0.00 0.00 0.00 76 1002.9
20260509072528 50 26 7.0 14.0 0.00 0.00 0.00 74 1003.0
20260509072027 50 346 4.0 12.0 0.00 0.00 0.00 73 1003.1
20260509071538 51 352 4.0 13.0 0.00 0.00 0.00 72 1003.1
20260509071027 51 301 6.0 18.0 0.00 0.00 0.00 71 1003.0
20260509070527 52 340 6.0 18.0 0.00 0.00 0.00 70 1002.8
20260509070043 52 343 6.0 18.0 0.00 0.00 0.00 69 1003.0
20260509065526 52 317 6.0 13.0 0.00 0.00 0.00 68 1003.1
20260509065028 53 304 6.0 17.0 0.00 0.00 0.00 66 1003.0
20260509064549 53 213 8.0 17.0 0.00 0.00 0.00 64 1003.1
20260509064027 53 343 4.0 17.0 0.00 0.00 0.00 62 1003.1
20260509063527 53 5 5.0 17.0 0.00 0.00 0.00 60 1003.2
20260509063042 53 310 6.0 15.0 0.00 0.00 0.00 55 1003.2
20260509062529 53 333 4.0 12.0 0.00 0.00 0.00 51 1003.2
20260509062027 52 13 4.0 11.0 0.00 0.00 0.00 49 1003.3
20260509061541 52 327 5.0 11.0 0.00 0.00 0.00 48 1003.3
20260509061027 51 325 5.0 10.0 0.00 0.00 0.00 47 1003.3
20260509060527 51 350 2.0 8.0 0.00 0.00 0.00 49 1003.2
20260509060037 52 13 1.0 3.0 0.00 0.00 0.00 49 1002.9
20260509055527 52 9 1.0 3.0 0.00 0.00 0.00 46 1002.6
20260509055027 52 313 0.0 2.0 0.00 0.00 0.00 45 1002.5
20260509054548 52 0 0.0 3.0 0.00 0.00 0.00 45 1002.4
20260509054027 52 0 0.0 4.0 0.00 0.00 0.00 46 1002.4
20260509053527 52 238 2.0 5.0 0.00 0.00 0.00 45 1002.4
20260509053041 52 227 1.0 5.0 0.00 0.00 0.00 45 1002.2
20260509052529 51 249 2.0 5.0 0.00 0.00 0.00 45 1002.2
20260509052027 51 196 1.0 3.0 0.00 0.00 0.00 47 1002.1
20260509051541 51 211 1.0 3.0 0.00 0.00 0.00 49 1002.2
20260509051026 51 181 0.0 5.0 0.00 0.00 0.00 53 1002.1
20260509050527 50 188 0.0 5.0 0.00 0.00 0.00 55 1002.0
20260509050058 50 159 0.0 2.0 0.00 0.00 0.00 53 1001.9
20260509045527 50 194 0.0 3.0 0.00 0.00 0.00 55 1002.1
20260509045027 50 0 0.0 3.0 0.00 0.00 0.00 53 1002.3
20260509044551 50 192 0.0 3.0 0.00 0.00 0.00 54 1002.1
20260509044024 50 0 1.0 4.0 0.00 0.00 0.00 58 1002.3
20260509043526 50 169 1.0 4.0 0.00 0.00 0.00 60 1002.4
20260509043036 50 190 1.0 4.0 0.00 0.00 0.00 57 1002.5
20260509042527 50 175 1.0 3.0 0.00 0.00 0.00 52 1002.6
20260509042029 51 185 1.0 3.0 0.00 0.00 0.00 52 1002.5
20260509041542 51 193 1.0 2.0 0.00 0.00 0.00 57 1002.5
20260509041028 51 189 0.0 2.0 0.00 0.00 0.00 58 1002.4
20260509040527 51 0 1.0 2.0 0.00 0.00 0.00 57 1002.4
20260509040043 51 0 0.0 2.0 0.00 0.00 0.00 55 1002.8
20260509035527 51 209 0.0 2.0 0.00 0.00 0.00 49 1002.8
20260509035028 52 0 0.0 2.0 0.00 0.00 0.00 44 1002.9
20260509034542 53 240 0.0 1.0 0.00 0.00 0.00 43 1003.1
20260509034027 53 0 0.0 1.0 0.00 0.00 0.00 42 1003.1
20260509033527 53 0 0.0 1.0 0.00 0.00 0.00 41 1003.0
20260509033040 54 0 0.0 2.0 0.00 0.00 0.00 41 1003.1
20260509032527 55 0 0.0 2.0 0.00 0.00 0.00 38 1003.0
20260509032026 55 0 0.0 2.0 0.00 0.00 0.00 36 1003.1
20260509031548 56 242 0.0 2.0 0.00 0.00 0.00 35 1003.2
20260509031027 56 0 1.0 2.0 0.00 0.00 0.00 34 1003.2
20260509030527 56 273 1.0 2.0 0.00 0.00 0.00 34 1003.2
20260509030043 57 0 0.0 3.0 0.00 0.00 0.00 34 1003.1
20260509025527 57 293 1.0 3.0 0.00 0.00 0.00 33 1003.2
20260509025028 57 286 0.0 3.0 0.00 0.00 0.00 33 1003.2
20260509024539 57 0 1.0 4.0 0.00 0.00 0.00 33 1003.3
20260509024027 57 320 1.0 4.0 0.00 0.00 0.00 33 1003.3
20260509023534 57 290 1.0 4.0 0.00 0.00 0.00 32 1003.2
20260509023039 57 0 1.0 4.0 0.00 0.00 0.00 32 1003.2
20260509022527 58 325 1.0 4.0 0.00 0.00 0.00 32 1003.2
20260509022028 58 329 2.0 4.0 0.00 0.00 0.00 32 1003.1
20260509021536 58 296 1.0 8.0 0.00 0.00 0.00 31 1003.1
20260509021026 58 331 2.0 8.0 0.00 0.00 0.00 31 1003.1
20260509020528 58 329 2.0 9.0 0.00 0.00 0.00 31 1003.1
20260509020042 59 314 3.0 9.0 0.00 0.00 0.00 30 1003.1
20260509015527 59 333 4.0 10.0 0.00 0.00 0.00 30 1003.1
20260509015026 59 320 4.0 10.0 0.00 0.00 0.00 29 1003.0
20260509014544 59 334 3.0 11.0 0.00 0.00 0.00 29 1003.1
20260509014026 60 39 4.0 12.0 0.00 0.00 0.00 29 1003.1
20260509013526 60 284 4.0 13.0 0.00 0.00 0.00 29 1003.1
20260509013046 60 327 6.0 13.0 0.00 0.00 0.00 29 1003.0
20260509012526 60 287 5.0 13.0 0.00 0.00 0.00 29 1003.0
20260509012027 61 342 4.0 17.0 0.00 0.00 0.00 29 1002.8
20260509011538 61 290 6.0 17.0 0.00 0.00 0.00 29 1002.9
20260509011027 61 297 6.0 16.0 0.00 0.00 0.00 28 1002.9
20260509010527 62 283 8.0 16.0 0.00 0.00 0.00 28 1002.9
20260509010036 62 290 9.0 16.0 0.00 0.00 0.00 29 1002.7
20260509005527 63 297 7.0 16.0 0.00 0.00 0.00 29 1002.7
20260509005026 63 349 8.0 17.0 0.00 0.00 0.00 29 1002.7
20260509004542 64 280 7.0 17.0 0.00 0.00 0.00 29 1002.6
20260509004028 64 335 9.0 19.0 0.00 0.00 0.00 28 1002.5
20260509003527 64 314 9.0 19.0 0.00 0.00 0.00 28 1002.4
20260509003055 65 293 10.0 19.0 0.00 0.00 0.00 28 1002.4
20260509002526 65 317 8.0 17.0 0.00 0.00 0.00 28 1002.2
20260509002026 65 333 10.0 17.0 0.00 0.00 0.00 27 1002.2
20260509001540 66 307 11.0 18.0 0.00 0.00 0.00 27 1002.2
20260509001027 66 314 9.0 18.0 0.00 0.00 0.00 27 1002.1
20260509000528 66 302 10.0 21.0 0.00 0.00 0.00 26 1002.0
20260509000043 67 265 10.0 21.0 0.00 0.00 0.00 26 1002.1
20260508235528 67 329 10.0 20.0 0.00 0.00 0.00 26 1002.0
20260508235027 67 352 11.0 23.0 0.00 0.00 0.00 26 1001.9
20260508234543 67 266 8.0 27.0 0.00 0.00 0.00 26 1001.8
20260508234028 68 315 10.0 27.0 0.00 0.00 0.00 26 1001.7
20260508233527 68 326 8.0 19.0 0.00 0.00 0.00 25 1001.7
20260508233039 68 294 10.0 20.0 0.00 0.00 0.00 25 1001.7
20260508232526 68 32 10.0 22.0 0.00 0.00 0.00 24 1001.6
20260508232026 68 5 10.0 22.0 0.00 0.00 0.00 23 1001.7
20260508231540 69 318 8.0 21.0 0.00 0.00 0.00 24 1001.8
20260508231029 69 280 9.0 21.0 0.00 0.00 0.00 22 1001.6
20260508230528 69 339 6.0 16.0 0.00 0.00 0.00 22 1001.7
20260508230043 69 296 7.0 23.0 0.00 0.00 0.00 22 1001.6
20260508225527 69 299 10.0 23.0 0.00 0.00 0.00 21 1001.6
20260508225029 70 292 6.0 22.0 0.00 0.00 0.00 22 1001.6
20260508224539 69 317 7.0 25.0 0.00 0.00 0.00 22 1001.6
20260508224030 70 282 13.0 25.0 0.00 0.00 0.00 21 1001.7
20260508223529 70 260 6.0 19.0 0.00 0.00 0.00 22 1001.6
20260508223043 69 299 9.0 21.0 0.00 0.00 0.00 21 1001.6
20260508222528 70 279 11.0 21.0 0.00 0.00 0.00 21 1001.6
20260508222031 70 283 8.0 17.0 0.00 0.00 0.00 20 1001.6
20260508221549 70 301 10.0 21.0 0.00 0.00 0.00 21 1001.6
20260508221029 70 284 6.0 21.0 0.00 0.00 0.00 21 1001.5
20260508220529 70 323 7.0 16.0 0.00 0.00 0.00 20 1001.5
20260508220044 70 347 7.0 17.0 0.00 0.00 0.00 20 1001.5
20260508215525 70 311 7.0 20.0 0.00 0.00 0.00 21 1001.5
20260508215028 70 337 10.0 20.0 0.00 0.00 0.00 21 1001.6
20260508214538 70 292 10.0 19.0 0.00 0.00 0.00 21 1001.7
20260508214028 70 288 8.0 19.0 0.00 0.00 0.00 20 1001.5
20260508213528 70 28 10.0 19.0 0.00 0.00 0.00 20 1001.6
20260508213044 71 234 8.0 19.0 0.00 0.00 0.00 20 1001.6
20260508212527 70 287 10.0 19.0 0.00 0.00 0.00 20 1001.6
20260508212026 70 339 9.0 16.0 0.00 0.00 0.00 21 1001.9
20260508211543 70 294 5.0 15.0 0.00 0.00 0.00 22 1001.8
20260508211027 70 234 5.0 16.0 0.00 0.00 0.00 22 1001.8
20260508210527 69 291 5.0 16.0 0.00 0.00 0.00 22 1001.9
20260508210044 70 286 5.0 16.0 0.00 0.00 0.00 21 1001.9
20260508205526 70 296 5.0 15.0 0.00 0.00 0.00 22 1002.0
20260508205026 70 315 8.0 15.0 0.00 0.00 0.00 20 1002.2
20260508204543 70 217 3.0 14.0 0.00 0.00 0.00 22 1002.2
20260508204026 69 234 4.0 23.0 0.00 0.00 0.00 22 1002.3
20260508203526 70 293 8.0 23.0 0.00 0.00 0.00 21 1002.4
20260508203040 71 291 8.0 23.0 0.00 0.00 0.00 20 1002.6
20260508202527 70 300 3.0 19.0 0.00 0.00 0.00 20 1002.4
20260508202027 69 319 11.0 19.0 0.00 0.00 0.00 22 1002.6
20260508201537 70 294 8.0 16.0 0.00 0.00 0.00 21 1002.5
20260508201027 70 263 6.0 15.0 0.00 0.00 0.00 22 1002.5
20260508200527 69 201 7.0 15.0 0.00 0.00 0.00 23 1002.9
20260508200036 69 295 10.0 15.0 0.00 0.00 0.00 21 1002.9
20260508195526 69 296 5.0 17.0 0.00 0.00 0.00 23 1002.9
20260508195027 70 142 3.0 17.0 0.00 0.00 0.00 21 1002.9
20260508194612 71 254 5.0 12.0 0.00 0.00 0.00 21 1003.1
20260508194026 71 227 4.0 11.0 0.00 0.00 0.00 21 1003.1
20260508193526 70 302 4.0 10.0 0.00 0.00 0.00 20 1003.2
20260508193041 69 336 6.0 11.0 0.00 0.00 0.00 22 1003.3
20260508192526 69 287 4.0 11.0 0.00 0.00 0.00 22 1003.3
20260508192026 69 288 3.0 12.0 0.00 0.00 0.00 21 1003.4
20260508191539 68 352 3.0 12.0 0.00 0.00 0.00 20 1003.4
20260508191026 68 248 5.0 11.0 0.00 0.00 0.00 21 1003.6
20260508190527 68 255 6.0 12.0 0.00 0.00 0.00 21 1003.5
20260508190038 68 316 6.0 12.0 0.00 0.00 0.00 21 1003.6
20260508185527 69 289 3.0 12.0 0.00 0.00 0.00 21 1003.7
20260508185027 68 286 6.0 12.0 0.00 0.00 0.00 21 1003.7
20260508184541 68 322 4.0 12.0 0.00 0.00 0.00 21 1003.8
20260508184026 67 40 5.0 12.0 0.00 0.00 0.00 22 1003.9
20260508183529 67 325 5.0 12.0 0.00 0.00 0.00 22 1004.0
20260508183041 67 287 5.0 12.0 0.00 0.00 0.00 21 1004.0
20260508182527 68 291 4.0 9.0 0.00 0.00 0.00 22 1004.0
20260508182026 68 298 4.0 9.0 0.00 0.00 0.00 21 1004.1
20260508181604 67 334 3.0 12.0 0.00 0.00 0.00 22 1004.2
20260508181029 67 286 3.0 12.0 0.00 0.00 0.00 23 1004.3
20260508180526 66 87 3.0 10.0 0.00 0.00 0.00 23 1004.3
20260508180045 66 182 3.0 10.0 0.00 0.00 0.00 25 1004.4
20260508175528 65 54 2.0 9.0 0.00 0.00 0.00 23 1004.5
20260508175029 65 294 3.0 17.0 0.00 0.00 0.00 23 1004.6
20260508174545 64 325 5.0 17.0 0.00 0.00 0.00 24 1004.6
20260508174027 65 203 5.0 17.0 0.00 0.00 0.00 23 1004.7
20260508173527 65 323 3.0 15.0 0.00 0.00 0.00 23 1004.8
20260508173045 65 319 7.0 14.0 0.00 0.00 0.00 23 1005.0
20260508172528 66 294 3.0 12.0 0.00 0.00 0.00 23 1005.0
20260508172027 66 275 4.0 13.0 0.00 0.00 0.00 23 1005.1
20260508171543 66 355 5.0 16.0 0.00 0.00 0.00 23 1005.1
20260508171027 65 300 5.0 16.0 0.00 0.00 0.00 23 1005.2
20260508170526 65 198 7.0 12.0 0.00 0.00 0.00 24 1005.3
20260508170041 64 303 4.0 15.0 0.00 0.00 0.00 24 1005.3
20260508165530 65 325 6.0 15.0 0.00 0.00 0.00 24 1005.4
20260508165028 65 303 3.0 11.0 0.00 0.00 0.00 24 1005.4
20260508164542 64 190 2.0 9.0 0.00 0.00 0.00 25 1005.5
20260508164028 64 14 4.0 9.0 0.00 0.00 0.00 25 1005.5
20260508163528 64 57 3.0 10.0 0.00 0.00 0.00 25 1005.6
20260508163038 64 311 4.0 10.0 0.00 0.00 0.00 24 1005.5
20260508162528 63 333 4.0 10.0 0.00 0.00 0.00 26 1005.6
20260508162029 62 9 3.0 11.0 0.00 0.00 0.00 27 1005.6
20260508161542 62 298 4.0 11.0 0.00 0.00 0.00 28 1005.6
20260508161029 62 5 2.0 11.0 0.00 0.00 0.00 27 1005.7
20260508160528 61 298 7.0 11.0 0.00 0.00 0.00 28 1005.7
20260508160042 62 352 2.0 10.0 0.00 0.00 0.00 30 1005.8
20260508155533 61 333 3.0 10.0 0.00 0.00 0.00 29 1005.9
20260508155028 60 22 4.0 9.0 0.00 0.00 0.00 32 1005.9
20260508154541 59 290 4.0 10.0 0.00 0.00 0.00 33 1005.8
20260508154028 59 292 4.0 10.0 0.00 0.00 0.00 33 1005.9
20260508153528 59 269 5.0 9.0 0.00 0.00 0.00 32 1006.1
20260508153045 60 289 1.0 13.0 0.00 0.00 0.00 32 1006.1
20260508152529 59 19 5.0 13.0 0.00 0.00 0.00 33 1006.1
20260508152028 59 329 3.0 7.0 0.00 0.00 0.00 35 1006.2
20260508151536 58 190 1.0 6.0 0.00 0.00 0.00 36 1006.1
20260508151028 57 298 3.0 6.0 0.00 0.00 0.00 37 1006.2
20260508150527 57 284 2.0 6.0 0.00 0.00 0.00 39 1006.2
20260508150042 56 279 2.0 7.0 0.00 0.00 0.00 39 1006.4
20260508145529 55 295 1.0 8.0 0.00 0.00 0.00 41 1006.4
20260508145028 55 273 3.0 9.0 0.00 0.00 0.00 40 1006.5
20260508144540 54 344 4.0 9.0 0.00 0.00 0.00 41 1006.4
20260508144029 55 271 2.0 9.0 0.00 0.00 0.00 42 1006.5
20260508143530 54 285 4.0 9.0 0.00 0.00 0.00 41 1006.4
20260508143045 54 271 3.0 9.0 0.00 0.00 0.00 40 1006.6
20260508142528 54 287 4.0 9.0 0.00 0.00 0.00 40 1006.5
20260508142028 54 278 4.0 8.0 0.00 0.00 0.00 38 1006.4
20260508141540 54 0 2.0 7.0 0.00 0.00 0.00 40 1006.4
20260508141028 53 273 1.0 4.0 0.00 0.00 0.00 41 1006.2
20260508140530 52 205 1.0 5.0 0.00 0.00 0.00 41 1006.2
20260508140038 52 289 2.0 8.0 0.00 0.00 0.00 41 1006.2
20260508135530 51 0 2.0 8.0 0.00 0.00 0.00 43 1006.3
20260508135029 51 237 2.0 6.0 0.00 0.00 0.00 44 1006.3
20260508134542 50 193 3.0 5.0 0.00 0.00 0.00 44 1006.4
20260508134028 51 229 1.0 4.0 0.00 0.00 0.00 44 1006.4
20260508133527 50 177 1.0 4.0 0.00 0.00 0.00 45 1006.3
20260508133055 50 181 1.0 5.0 0.00 0.00 0.00 46 1006.6
20260508132528 50 0 1.0 7.0 0.00 0.00 0.00 45 1006.5
20260508132031 49 300 1.0 7.0 0.00 0.00 0.00 47 1006.6
20260508131544 48 168 3.0 8.0 0.00 0.00 0.00 48 1006.6
20260508131027 47 250 2.0 9.0 0.00 0.00 0.00 49 1006.7
20260508130528 47 252 3.0 9.0 0.00 0.00 0.00 49 1006.7
20260508130037 46 171 3.0 10.0 0.00 0.00 0.00 49 1006.7
20260508125526 46 155 4.0 10.0 0.00 0.00 0.00 48 1006.7
20260508125028 46 272 4.0 10.0 0.00 0.00 0.00 49 1006.6
20260508124542 46 172 2.0 7.0 0.00 0.00 0.00 50 1006.8
20260508124028 45 234 2.0 10.0 0.00 0.00 0.00 50 1006.8
20260508123529 45 294 3.0 10.0 0.00 0.00 0.00 50 1007.0
20260508123055 45 235 4.0 8.0 0.00 0.00 0.00 50 1007.1
20260508122526 45 227 4.0 7.0 0.00 0.00 0.00 50 1007.0
20260508122028 45 257 3.0 7.0 0.00 0.00 0.00 52 1006.9
20260508121550 44 280 1.0 4.0 0.00 0.00 0.00 53 1007.0
20260508121028 44 0 0.0 3.0 0.00 0.00 0.00 54 1006.9
20260508120528 44 0 0.0 3.0 0.00 0.00 0.00 53 1006.9
20260508120040 44 240 1.0 4.0 0.00 0.00 0.00 52 1006.8
20260508115529 43 0 1.0 4.0 0.00 0.00 0.00 53 1006.8
20260508115026 43 0 0.0 3.0 0.00 0.00 0.00 53 1006.7
20260508114543 43 0 0.0 3.0 0.00 0.00 0.00 53 1006.8
20260508114027 43 0 1.0 3.0 0.00 0.00 0.00 52 1006.8
20260508113526 43 275 1.0 2.0 0.00 0.00 0.00 53 1006.7
20260508113047 42 248 0.0 2.0 0.00 0.00 0.00 56 1006.7
20260508112526 42 0 0.0 1.0 0.00 0.00 0.00 58 1006.5
20260508112028 42 0 0.0 1.0 0.00 0.00 0.00 60 1006.5
20260508111541 42 0 0.0 1.0 0.00 0.00 0.00 60 1006.6
20260508111028 42 0 0.0 1.0 0.00 0.00 0.00 61 1006.5
20260508110528 41 190 0.0 1.0 0.00 0.00 0.00 62 1006.6
20260508110044 41 0 0.0 1.0 0.00 0.00 0.00 64 1006.6
20260508105529 41 0 0.0 1.0 0.00 0.00 0.00 65 1006.6
20260508105027 41 0 0.0 2.0 0.00 0.00 0.00 65 1006.6
20260508104541 41 0 0.0 2.0 0.00 0.00 0.00 62 1006.6
20260508104027 41 0 0.0 2.0 0.00 0.00 0.00 62 1006.6
20260508103527 41 0 0.0 3.0 0.00 0.00 0.00 66 1006.6
20260508103042 40 182 0.0 3.0 0.00 0.00 0.00 66 1006.7
20260508102528 40 0 1.0 3.0 0.00 0.00 0.00 68 1006.7
20260508102028 39 0 0.0 3.0 0.00 0.00 0.00 74 1006.8
20260508101538 39 179 0.0 3.0 0.00 0.00 0.00 72 1006.9
20260508101029 40 179 1.0 2.0 0.00 0.00 0.00 70 1007.0
20260508100528 40 179 1.0 2.0 0.00 0.00 0.00 67 1007.1
20260508100037 40 0 0.0 3.0 0.00 0.00 0.00 65 1007.1
20260508095529 40 0 0.0 3.0 0.00 0.00 0.00 67 1007.1
20260508095028 39 0 0.0 3.0 0.00 0.00 0.00 70 1007.1
20260508094547 39 0 0.0 3.0 0.00 0.00 0.00 74 1007.0
20260508094028 39 166 0.0 3.0 0.00 0.00 0.00 73 1007.2